Station DPXC1 - 9415141 - Davis Point, San Pablo Bay, CA Image indicating link to RSS feed of recent meteorological observations for station DPXC1


Conditions at DPXC1 as of
(8:30 am PDT)
1530 GMT on 06/16/2024:
     

Click on the graph icon in the table below to see a time series plot of the last five days of that observation.

5-day plot - Wind Direction Wind Direction (WDIR):WSW ( 250 deg true )
5-day plot - Wind Speed Wind Speed (WSPD): 7.0 kts
5-day plot - Wind Gust Wind Gust (GST): 9.9 kts
5-day plot - Atmospheric Pressure Atmospheric Pressure (PRES):29.90 in
5-day plot - Air Temperature Air Temperature (ATMP): 60.6 °F
5-day plot - Wind Speed at 10 Meters Wind Speed at 10 meters (WSPD10M): 7.8 kts
5-day plot - Wind Speed at 20 Meters Wind Speed at 20 meters (WSPD20M): 7.8 kts
5-day plot -  Wind Speed, Wind Gust and Atmospheric Pressure Combined plot of Wind Speed, Gust, and Air Pressure
NOS Water Level Observation Network Water Level
Previous observations
TIME
(PDT)
5-day plot - Wind Direction
WDIR
 
5-day plot - Wind Speed
WSPD
kts
5-day plot - Wind Gust
GST
kts
5-day plot - Wave Height
WVHT
ft
5-day plot - Dominant Wave Period
DPD
sec
5-day plot - Average Wave Period
APD
sec
5-day plot - Mean Wave Direction
MWD
 
5-day plot - Atmospheric Pressure
PRES
in
5-day plot - Pressure Tendency
PTDY
in
5-day plot - Air Temperature
ATMP
°F
5-day plot - Water Temperature
WTMP
°F
5-day plot - Dew Point
DEWP
°F
5-day plot - Salinity
SAL
psu
5-day plot - Visibility
VIS
nmi
5-day plot - Tide (above MLLW)
TIDE
ft
2024-06-16 08:24 am W 7.0 9.9----29.90- 60.6-----
2024-06-16 08:18 amWSW 8.0 9.9----29.90-------
2024-06-16 08:12 amWSW 7.0 9.9----29.90-------
2024-06-16 08:06 amWSW 7.0 9.9----29.90-------
2024-06-16 08:00 amWSW 7.0 9.9----29.90+0.02 59.5-----
2024-06-16 07:54 amWSW 7.0 9.9----29.90- 59.4-----
2024-06-16 07:48 am W 7.0 11.1----29.90-------
2024-06-16 07:42 am W 8.0 11.1----29.90-------
2024-06-16 07:36 am W 7.0 12.0----29.90-------
2024-06-16 07:30 am-------29.89-------
2024-06-16 07:24 am-------29.89-------
2024-06-16 07:18 am W 8.0 12.0----29.89- 59.5-----
2024-06-16 07:12 amWSW 8.0 11.1----29.88- 59.5-----
2024-06-16 07:06 amWSW 8.0 12.0----29.88- 59.7-----
2024-06-16 07:00 amWSW 8.0 11.1----29.89+0.01------
2024-06-16 06:54 amWSW 7.0 11.1----29.89-------
2024-06-16 06:48 amWSW 7.0 9.9----29.89- 59.0-----
2024-06-16 06:42 amWSW 7.0 9.9----29.89- 59.0-----
2024-06-16 06:36 am SW 8.0 9.9----29.89- 58.6-----
2024-06-16 06:30 am SW 7.0 9.9----29.89- 59.0-----
2024-06-16 06:24 amWSW 8.0 12.0----29.89- 59.2-----
2024-06-16 06:18 amWSW 8.9 12.0----29.89-------
2024-06-16 06:12 amWSW 6.0 9.9----29.89-------
2024-06-16 06:06 amWSW 7.0 8.9----29.89-------
2024-06-16 06:00 amWSW 8.0 9.9----29.89+0.01 59.2-----
2024-06-16 05:54 am SW 7.0 8.9----29.88- 59.0-----
2024-06-16 05:48 am SW 8.0 11.1----29.88- 59.7-----
2024-06-16 05:42 amWSW 7.0 9.9----29.88- 60.1-----
2024-06-16 05:36 amWSW 8.0 11.1----29.88- 60.1-----
2024-06-16 05:30 amWSW 8.9 12.0----29.88- 60.1-----
2024-06-16 05:24 amWSW 6.0 8.9----29.88- 60.3-----
2024-06-16 05:18 am-------29.88- 60.4-----
2024-06-16 05:12 am-------29.88- 60.4-----
2024-06-16 05:06 am-------29.88- 60.6-----
2024-06-16 05:00 amWSW 8.0 9.9----29.88+0.00 60.4-----
2024-06-16 04:54 amWSW 8.0 9.9----29.88- 60.6-----
2024-06-16 04:48 amWSW 7.0 9.9----29.88- 60.6-----
2024-06-16 04:42 amWSW 7.0 11.1----29.88- 60.8-----
2024-06-16 04:36 amWSW 6.0 8.0----29.88- 60.8-----
2024-06-16 04:30 amWSW 7.0 9.9----29.88- 60.8-----
2024-06-16 04:24 amWSW 6.0 8.9----29.87- 61.0-----
2024-06-16 04:18 amWSW 6.0 8.9----29.87-------
2024-06-16 04:12 amWSW 7.0 9.9----29.87-------
2024-06-16 04:06 amWSW 6.0 9.9----29.87-------
2024-06-16 04:00 amWSW 8.0 11.1----29.87-------
2024-06-16 03:54 amWSW 8.0 11.1----29.87-------
2024-06-16 03:48 amWSW 8.9 12.0----29.87-------
2024-06-16 03:42 amWSW 8.0 12.0----29.88-------
2024-06-16 03:36 amWSW 7.0 11.1----29.88-------
2024-06-16 03:30 am W 7.0 11.1----29.88-------
2024-06-16 03:24 amWSW 7.0 9.9----29.88-------
2024-06-16 03:18 amWSW 7.0 9.9----29.88- 60.8-----
2024-06-16 03:12 amWSW 6.0 9.9----29.88- 61.0-----
2024-06-16 03:06 amWSW 8.0 11.1----29.88- 61.0-----
2024-06-16 03:00 amWSW 7.0 9.9----29.88-0.01------
2024-06-16 02:54 amWSW 7.0 11.1----29.88-------
2024-06-16 02:48 amWSW 7.0 9.9----29.88- 61.2-----
2024-06-16 02:42 amWSW 8.0 12.0----29.88- 61.0-----
2024-06-16 02:36 amWSW 8.0 12.0----29.88- 61.3-----
2024-06-16 02:30 amWSW 8.9 12.0----29.88- 61.3-----
2024-06-16 02:24 amWSW 7.0 12.0----29.88- 61.7-----
2024-06-16 02:18 amWSW 9.9 13.0----29.89-------
2024-06-16 02:12 amWSW 7.0 11.1----29.88-------
2024-06-16 02:06 amWSW 7.0 11.1----29.88-------
2024-06-16 02:00 amWSW 8.0 11.1----29.88-0.02------
2024-06-16 01:54 amWSW 8.0 12.0----29.88-------
2024-06-16 01:48 amWSW 8.0 12.0----29.88- 62.6-----
2024-06-16 01:42 amWSW 9.9 12.0----29.88- 62.6-----
2024-06-16 01:36 am SW 8.9 12.0----29.89- 62.8-----
2024-06-16 01:30 amWSW 7.0 12.0----29.89- 63.0-----
2024-06-16 01:24 amWSW 8.9 12.0----29.89- 63.0-----
2024-06-16 01:18 amWSW 8.0 12.0----29.89- 63.3-----
2024-06-16 01:12 amWSW 8.9 13.0----29.90- 63.5-----
2024-06-16 01:06 amWSW 8.0 15.9----29.90- 63.7-----
2024-06-16 01:00 am W 9.9 15.0------ 63.5-----
2024-06-16 12:54 amWSW 8.9 12.0------ 63.5-----
2024-06-16 12:48 amWSW 8.9 12.0----29.89- 63.7-----
2024-06-16 12:42 amWSW 8.9 12.0----29.89- 63.7-----
2024-06-16 12:36 amWSW 8.9 12.0----29.89- 63.5-----
2024-06-16 12:30 amWSW 9.9 13.0----29.89- 63.5-----
2024-06-16 12:24 amWSW 8.9 12.0----29.89- 63.5-----
2024-06-16 12:18 amWSW 8.0 12.0----29.90- 63.5-----
2024-06-16 12:12 amWSW 9.9 12.0----29.89- 63.5-----
2024-06-16 12:06 amWSW 9.9 12.0----29.89- 63.9-----
2024-06-16 12:00 amWSW 8.9 9.9----29.89+0.00 63.7-----
2024-06-15 11:54 pmWSW 6.0 9.9----29.90- 63.3-----
2024-06-15 11:48 pmWSW 8.0 9.9----29.90- 63.3-----
2024-06-15 11:42 pmWSW 8.0 11.1----29.90- 63.0-----
2024-06-15 11:36 pmWSW 8.9 11.1----29.90- 63.0-----
2024-06-15 11:30 pmWSW 8.0 11.1----29.90- 63.1-----
2024-06-15 11:24 pmWSW 7.0 12.0----29.90- 63.0-----
2024-06-15 11:18 pmWSW 8.9 13.0----29.90- 63.1-----
2024-06-15 11:12 pmWSW 9.9 13.0----29.90- 63.1-----
2024-06-15 11:06 pmWSW 9.9 12.0----29.91- 63.1-----
2024-06-15 11:00 pmWSW 8.9 13.0----29.91+0.02 63.3-----
2024-06-15 10:54 pmWSW 8.9 13.0----29.91- 63.7-----
2024-06-15 10:48 pmWSW 8.9 13.0----29.91-------
2024-06-15 10:42 pmWSW 12.0 15.0----29.91-------
2024-06-15 10:36 pmWSW 11.1 14.0----29.91-------
2024-06-15 10:30 pmWSW 11.1 14.0------ 64.0-----
2024-06-15 10:24 pmWSW 12.0 14.0------ 64.2-----
2024-06-15 10:18 pm--------- 64.2-----
2024-06-15 10:12 pm--------- 64.0-----
2024-06-15 10:06 pm--------- 63.7-----
2024-06-15 10:00 pm W 8.0 11.1----29.91+0.02 64.0-----
2024-06-15 09:54 pmWSW 9.9 14.0----29.91- 63.7-----
2024-06-15 09:48 pm W 9.9 14.0----29.91- 64.0-----
2024-06-15 09:42 pm W 12.0 14.0----29.90- 64.6-----
2024-06-15 09:36 pm W 7.0 11.1----29.90- 65.7-----
2024-06-15 09:30 pm W 8.9 11.1----29.90- 65.7-----
2024-06-15 09:24 pm W 7.0 9.9----29.90- 65.5-----
2024-06-15 09:18 pm W 8.9 12.0----29.89-------
2024-06-15 09:12 pm W 9.9 13.0----29.89-------
2024-06-15 09:06 pm W 8.9 12.0----29.89-------
2024-06-15 09:00 pm-------29.89+0.00 66.2-----
2024-06-15 08:54 pm-------29.89- 66.6-----
2024-06-15 08:48 pm W 8.0 13.0----29.88- 66.4-----
2024-06-15 08:42 pm W 8.0 14.0----29.88- 66.4-----
2024-06-15 08:36 pm W 9.9 13.0----29.88- 66.9-----
2024-06-15 08:30 pm W 8.9 12.0----29.88- 67.5-----
2024-06-15 08:24 pm W 7.0 11.1----29.88- 67.8-----
2024-06-15 08:18 pm W 8.0 11.1----29.88- 68.5-----
2024-06-15 08:12 pm W 8.0 13.0----29.88- 68.2-----
2024-06-15 08:06 pm W 7.0 11.1----29.88- 68.4-----
2024-06-15 08:00 pm W 8.9 11.1----29.88+0.00 68.5-----
2024-06-15 07:54 pm W 8.0 9.9----29.88- 69.1-----
2024-06-15 07:48 pm W 7.0 9.9----29.89- 68.9-----
2024-06-15 07:42 pm W 8.0 11.1----29.89- 69.1-----
2024-06-15 07:36 pm W 8.9 11.1----29.89- 69.4-----
2024-06-15 07:30 pm W 8.9 11.1----29.88- 69.6-----
2024-06-15 07:24 pm W 7.0 9.9----29.88- 70.0-----
2024-06-15 07:18 pm W 6.0 9.9----29.89- 70.0-----
2024-06-15 07:12 pm W 7.0 8.9----29.89- 69.3-----
2024-06-15 07:06 pmWSW 7.0 9.9----29.89- 69.6-----
2024-06-15 07:00 pmWSW 6.0 8.9----29.89-0.02 69.8-----
2024-06-15 06:54 pm W 8.0 12.0----29.89- 70.3-----
2024-06-15 06:48 pm W 9.9 13.0----29.89- 70.9-----
2024-06-15 06:42 pm W 9.9 14.0----29.89- 71.2-----
2024-06-15 06:36 pm W 11.1 15.0----29.89- 71.4-----
2024-06-15 06:30 pm W 8.9 13.0----29.89-------
2024-06-15 06:24 pm W 9.9 13.0----29.89-------
2024-06-15 06:18 pm W 8.0 12.0----29.89- 72.9-----
2024-06-15 06:12 pm W 12.0 14.0----29.89- 72.3-----
2024-06-15 06:06 pm W 9.9 12.0----29.89- 72.7-----
2024-06-15 06:00 pm W 7.0 12.0----29.89-0.03 72.1-----
2024-06-15 05:54 pm W 8.9 11.1----29.89- 72.9-----
2024-06-15 05:48 pm W 8.0 13.0----29.89- 74.1-----
2024-06-15 05:42 pm W 8.9 12.0----29.89- 73.2-----
2024-06-15 05:36 pmWSW 7.0 9.9----29.89- 73.2-----
2024-06-15 05:30 pmWSW 11.1 14.0----29.89-------
2024-06-15 05:24 pmWSW 12.0 13.0----29.89-------
2024-06-15 05:18 pm SW 11.1 14.0----29.89- 74.1-----
2024-06-15 05:12 pm SW 11.1 14.0----29.89- 73.9-----
2024-06-15 05:06 pmWSW 11.1 13.0----29.89- 73.9-----
2024-06-15 05:00 pmWSW 11.1 14.0----29.89-0.06------
2024-06-15 04:54 pmWSW 11.1 13.0----29.89-------
2024-06-15 04:48 pm-------29.89- 74.7-----
2024-06-15 04:42 pm-------29.90- 74.3-----
2024-06-15 04:36 pm-------29.90- 74.1-----
2024-06-15 04:30 pm SW 11.1 12.0----29.90- 73.9-----
2024-06-15 04:24 pmWSW 9.9 12.0----29.90- 73.9-----
2024-06-15 04:18 pmWSW 9.9 12.0----29.90-------
2024-06-15 04:12 pmWSW 9.9 12.0----29.90-------
2024-06-15 04:06 pmWSW 9.9 12.0----29.90-------
2024-06-15 04:00 pmWSW 11.1 12.0----29.91-0.07 74.5-----
2024-06-15 03:54 pm SW 8.0 11.1----29.91- 73.6-----
2024-06-15 03:48 pm SW 8.9 11.1----29.91- 73.4-----
2024-06-15 03:42 pmWSW 7.0 8.9----29.91- 73.8-----
2024-06-15 03:36 pmWSW 7.0 9.9----29.92- 73.4-----
2024-06-15 03:30 pmWSW 8.0 9.9----29.92-------
2024-06-15 03:24 pmWSW 6.0 9.9----29.92-------
2024-06-15 03:18 pmWSW 7.0 8.9----29.92- 74.3-----
2024-06-15 03:12 pmWSW 8.0 8.9----29.92- 73.4-----
2024-06-15 03:06 pmWSW 8.0 8.9----29.93- 73.2-----
2024-06-15 03:00 pmWSW 7.0 8.9----29.93-0.06------
2024-06-15 02:54 pmWSW 7.0 8.9----29.93-------
2024-06-15 02:48 pmWSW 6.0 8.9----29.93-------
2024-06-15 02:42 pmWSW 7.0 8.9----29.93-------
2024-06-15 02:36 pmWSW 7.0 8.0----29.94-------
2024-06-15 02:30 pmWSW 5.1 8.9----29.94- 72.3-----
2024-06-15 02:24 pmWSW 6.0 8.9----29.94- 72.3-----
2024-06-15 02:18 pmWSW 7.0 9.9----29.95-------
2024-06-15 02:12 pmWSW 8.9 9.9----29.95-------
2024-06-15 02:06 pmWSW 6.0 8.9----29.95-------
2024-06-15 02:00 pmWSW 6.0 8.0----29.95-0.05------
2024-06-15 01:54 pmWSW 6.0 8.0----29.96-------
2024-06-15 01:48 pm-------29.96- 72.0-----
2024-06-15 01:42 pm-------29.96- 71.4-----
2024-06-15 01:36 pm-------29.96- 71.8-----
2024-06-15 01:30 pmWSW 8.9 9.9----29.97- 71.2-----
2024-06-15 01:24 pmWSW 6.0 8.0----29.97- 71.1-----
2024-06-15 01:18 pmWSW 7.0 8.9----29.97- 70.2-----
2024-06-15 01:12 pm SW 6.0 8.0----29.97- 69.6-----
2024-06-15 01:06 pm SW 7.0 8.0----29.97- 69.6-----
2024-06-15 01:00 pm SW 7.0 8.0----29.98-0.04------
2024-06-15 12:54 pm SW 6.0 8.0----29.97-------
2024-06-15 12:48 pm SW 6.0 8.0----29.98-------
2024-06-15 12:42 pm SW 7.0 8.0----29.98-------
2024-06-15 12:36 pm SW 7.0 8.9----29.98-------
2024-06-15 12:30 pm SW 8.0 8.9----29.98- 68.5-----
2024-06-15 12:24 pm SW 8.0 9.9----29.98- 68.5-----
2024-06-15 12:18 pm SW 8.0 9.9----29.98- 68.2-----
2024-06-15 12:12 pm SW 8.9 9.9----29.98- 67.6-----
2024-06-15 12:06 pm SW 8.0 9.9----29.98- 67.5-----
2024-06-15 12:00 pm SW 8.9 11.1----29.98-0.04------
2024-06-15 11:54 am SW 8.0 8.9----29.99-------
2024-06-15 11:48 am SW 8.0 9.9----29.99-------
2024-06-15 11:42 am SW 7.0 8.9----29.99-------
2024-06-15 11:36 am SW 7.0 8.0----30.00-------
2024-06-15 11:30 am SW 7.0 8.0------ 65.3-----
2024-06-15 11:24 am SW 6.0 8.0------ 65.1-----
2024-06-15 11:18 am SW 7.0 8.0----30.00-------
2024-06-15 11:12 am SW 7.0 8.0----30.00-------
2024-06-15 11:06 am SW 6.0 8.0----30.00-------
2024-06-15 11:00 am SW 6.0 8.0----30.01-0.01 63.7-----
2024-06-15 10:54 am SW 6.0 8.0----30.01- 63.3-----
2024-06-15 10:48 amWSW 6.0 8.0----30.01-------
2024-06-15 10:42 amWSW 6.0 7.0----30.01-------
2024-06-15 10:36 amWSW 6.0 7.0----30.01-------
2024-06-15 10:30 amWSW 5.1 7.0----30.01- 63.1-----
2024-06-15 10:24 am W 5.1 7.0----30.01- 63.1-----
2024-06-15 10:18 amWSW 5.1 8.0----30.01-------
2024-06-15 10:12 am W 6.0 8.0----30.01-------
2024-06-15 10:06 amWSW 6.0 8.0----30.01-------
2024-06-15 10:00 amWSW 6.0 8.0----30.01+0.01 62.1-----
2024-06-15 09:54 amWSW 6.0 8.0----30.01- 61.9-----
2024-06-15 09:48 am W 7.0 8.0----30.02- 61.2-----
2024-06-15 09:42 amWSW 6.0 8.0----30.02- 61.5-----
2024-06-15 09:36 am W 7.0 9.9----30.02- 61.2-----
2024-06-15 09:30 am W 8.0 11.1----30.02- 61.2-----
2024-06-15 09:24 am W 8.0 9.9----30.02- 61.0-----
2024-06-15 09:18 am W 7.0 9.9----30.02- 61.0-----
2024-06-15 09:12 am W 6.0 11.1----30.02- 60.6-----
2024-06-15 09:06 am W 7.0 11.1----30.02- 60.8-----
2024-06-15 09:00 am W 7.0 11.1----30.02+0.03 60.3-----
2024-06-15 08:54 amWSW 7.0 11.1----30.02- 60.6-----